Zurück zum Katalog

HULIANWANG DIGUI-51

AktivKommunikationLEO
NORAD 65108·PAYLOAD·🇨🇳 China

Gestartet Aug 4, 2025 von Wenchang Space Launch Site

Loading…

Nächste Überflüge (nächste 24 Stunden)

TLE

AktuellSource: Space-Track

Epoche: Sep 14, 2026, 14:35 UTC

1 65108U 25168C   26257.60790315 -.00000082  00000-0  91328-4 0  9993
2 65108  50.0059   5.1201 0009512 355.2368   4.8412 13.29329096 54584

Verfolge HULIANWANG DIGUI-51 in Echtzeit mit AllMySat

Download on the App Store